| time (UTC) | temp F | wind direction | speed MPH | gust MPH | rain 1hr in | rain 24hr in | rain mn in | humidity % | barometer mb |
| 20260906190024 | 58 | 0 | 0.0 | 0.0 | 0.00 | 0.01 | 0.01 | 7 | 1019.2 |
| 20260906185503 | 58 | 0 | 0.0 | 0.0 | 0.00 | 0.01 | 0.01 | 10 | 1019.2 |
| 20260906185003 | 58 | 0 | 0.0 | 0.0 | 0.00 | 0.01 | 0.01 | 11 | 1019.1 |
| 20260906184503 | 58 | 135 | 0.0 | 1.0 | 0.00 | 0.01 | 0.01 | 12 | 1019.1 |
| 20260906184003 | 58 | 135 | 0.0 | 1.0 | 0.00 | 0.01 | 0.01 | 14 | 1019.0 |
| 20260906183503 | 59 | 106 | 0.0 | 2.0 | 0.00 | 0.01 | 0.01 | 16 | 1019.1 |
| 20260906183003 | 59 | 38 | 0.0 | 2.0 | 0.00 | 0.01 | 0.01 | 18 | 1019.2 |
| 20260906182503 | 59 | 355 | 0.0 | 1.0 | 0.00 | 0.01 | 0.01 | 20 | 1019.3 |
| 20260906182024 | 59 | 345 | 0.0 | 2.0 | 0.00 | 0.01 | 0.01 | 21 | 1019.2 |
| 20260906181523 | 59 | 345 | 0.0 | 2.0 | 0.00 | 0.01 | 0.01 | 23 | 1019.3 |
| 20260906181003 | 59 | 314 | 0.0 | 4.0 | 0.00 | 0.01 | 0.01 | 26 | 1019.3 |
| 20260906180503 | 59 | 317 | 0.0 | 4.0 | 0.00 | 0.01 | 0.01 | 27 | 1019.3 |
| 20260906180003 | 59 | 351 | 0.0 | 2.0 | 0.00 | 0.01 | 0.01 | 30 | 1019.3 |
| 20260906175503 | 59 | 154 | 0.0 | 1.0 | 0.00 | 0.01 | 0.01 | 33 | 1019.3 |
| 20260906175003 | 59 | 136 | 0.0 | 3.0 | 0.00 | 0.01 | 0.01 | 36 | 1019.2 |
| 20260906174503 | 59 | 302 | 0.0 | 3.0 | 0.00 | 0.01 | 0.01 | 38 | 1019.2 |
| 20260906174003 | 59 | 303 | 0.0 | 2.0 | 0.00 | 0.01 | 0.01 | 41 | 1019.2 |
| 20260906173503 | 60 | 301 | 0.0 | 4.0 | 0.00 | 0.01 | 0.01 | 43 | 1019.2 |
| 20260906173003 | 60 | 331 | 0.0 | 4.0 | 0.00 | 0.01 | 0.01 | 44 | 1019.1 |
| 20260906172503 | 60 | 312 | 0.0 | 4.0 | 0.00 | 0.01 | 0.01 | 46 | 1019.1 |
| 20260906172003 | 60 | 302 | 0.0 | 4.0 | 0.00 | 0.01 | 0.01 | 47 | 1019.1 |
| 20260906171502 | 60 | 305 | 0.0 | 3.0 | 0.00 | 0.01 | 0.01 | 48 | 1019.2 |
| 20260906171003 | 60 | 321 | 0.0 | 3.0 | 0.00 | 0.01 | 0.01 | 50 | 1019.3 |
| 20260906170503 | 60 | 314 | 0.0 | 4.0 | 0.00 | 0.01 | 0.01 | 51 | 1019.2 |
| 20260906170003 | 60 | 276 | 0.0 | 4.0 | 0.00 | 0.01 | 0.01 | 52 | 1019.2 |
| 20260906165503 | 60 | 310 | 1.0 | 6.0 | 0.00 | 0.01 | 0.01 | 51 | 1019.2 |
| 20260906165002 | 60 | 325 | 1.0 | 6.0 | 0.00 | 0.01 | 0.01 | 52 | 1019.2 |
| 20260906164503 | 60 | 331 | 0.0 | 4.0 | 0.00 | 0.01 | 0.01 | 52 | 1019.2 |
| 20260906164003 | 60 | 318 | 0.0 | 4.0 | 0.00 | 0.01 | 0.01 | 53 | 1019.3 |
| 20260906163503 | 60 | 327 | 0.0 | 3.0 | 0.00 | 0.01 | 0.01 | 53 | 1019.3 |
| 20260906163003 | 60 | 314 | 0.0 | 4.0 | 0.00 | 0.01 | 0.01 | 53 | 1019.4 |
| 20260906162503 | 60 | 295 | 1.0 | 4.0 | 0.00 | 0.01 | 0.01 | 54 | 1019.3 |
| 20260906162003 | 60 | 303 | 1.0 | 6.0 | 0.00 | 0.01 | 0.01 | 54 | 1019.4 |
| 20260906161503 | 60 | 302 | 0.0 | 6.0 | 0.00 | 0.01 | 0.01 | 53 | 1019.5 |
| 20260906161003 | 60 | 228 | 0.0 | 2.0 | 0.00 | 0.01 | 0.01 | 54 | 1019.5 |
| 20260906160503 | 60 | 250 | 0.0 | 2.0 | 0.00 | 0.01 | 0.01 | 53 | 1019.4 |
| 20260906160003 | 60 | 283 | 0.0 | 3.0 | 0.00 | 0.01 | 0.01 | 53 | 1019.4 |
| 20260906155502 | 60 | 293 | 0.0 | 6.0 | 0.00 | 0.01 | 0.01 | 54 | 1019.4 |
| 20260906155024 | 60 | 300 | 0.0 | 6.0 | 0.00 | 0.01 | 0.01 | 55 | 1019.3 |
| 20260906154503 | 60 | 316 | 0.0 | 6.0 | 0.00 | 0.01 | 0.01 | 54 | 1019.4 |
| 20260906154024 | 60 | 315 | 0.0 | 6.0 | 0.00 | 0.01 | 0.01 | 55 | 1019.3 |
| 20260906153503 | 60 | 300 | 0.0 | 6.0 | 0.00 | 0.01 | 0.01 | 56 | 1019.3 |
| 20260906153003 | 60 | 290 | 0.0 | 6.0 | 0.00 | 0.01 | 0.01 | 57 | 1019.2 |
| 20260906152503 | 61 | 284 | 0.0 | 2.0 | 0.00 | 0.01 | 0.01 | 58 | 1019.2 |
| 20260906152024 | 61 | 34 | 0.0 | 2.0 | 0.00 | 0.01 | 0.01 | 57 | 1019.2 |
| 20260906151504 | 61 | 334 | 0.0 | 2.0 | 0.00 | 0.01 | 0.01 | 57 | 1019.2 |
| 20260906151002 | 61 | 321 | 1.0 | 7.0 | 0.00 | 0.01 | 0.01 | 59 | 1019.2 |
| 20260906150503 | 61 | 323 | 1.0 | 7.0 | 0.00 | 0.01 | 0.01 | 59 | 1019.3 |
| 20260906150024 | 61 | 308 | 1.0 | 5.0 | 0.00 | 0.01 | 0.01 | 61 | 1019.3 |
| 20260906145524 | 62 | 276 | 0.0 | 3.0 | 0.00 | 0.01 | 0.01 | 61 | 1019.3 |
| 20260906145024 | 62 | 292 | 1.0 | 4.0 | 0.00 | 0.01 | 0.01 | 61 | 1019.2 |
| 20260906144503 | 62 | 298 | 1.0 | 5.0 | 0.00 | 0.01 | 0.01 | 62 | 1019.3 |
| 20260906144003 | 62 | 287 | 0.0 | 5.0 | 0.00 | 0.01 | 0.01 | 62 | 1019.4 |
| 20260906143503 | 62 | 280 | 1.0 | 8.0 | 0.00 | 0.01 | 0.01 | 61 | 1019.4 |
| 20260906143024 | 62 | 289 | 1.0 | 8.0 | 0.00 | 0.01 | 0.01 | 60 | 1019.4 |
| 20260906142503 | 62 | 283 | 1.0 | 7.0 | 0.00 | 0.01 | 0.01 | 62 | 1019.4 |
| 20260906142003 | 62 | 276 | 1.0 | 6.0 | 0.00 | 0.01 | 0.01 | 62 | 1019.4 |
| 20260906141503 | 63 | 300 | 1.0 | 5.0 | 0.00 | 0.01 | 0.01 | 60 | 1019.4 |
| 20260906141003 | 62 | 309 | 1.0 | 6.0 | 0.00 | 0.01 | 0.01 | 61 | 1019.3 |
| 20260906140524 | 62 | 317 | 1.0 | 9.0 | 0.00 | 0.01 | 0.01 | 61 | 1019.3 |
| 20260906140002 | 62 | 287 | 1.0 | 9.0 | 0.00 | 0.01 | 0.01 | 61 | 1019.2 |
| 20260906135503 | 62 | 258 | 1.0 | 6.0 | 0.00 | 0.01 | 0.01 | 61 | 1019.4 |
| 20260906135003 | 62 | 257 | 1.0 | 5.0 | 0.00 | 0.05 | 0.01 | 60 | 1019.2 |
| 20260906134503 | 62 | 310 | 1.0 | 6.0 | 0.00 | 0.07 | 0.01 | 61 | 1019.0 |
| 20260906134024 | 62 | 312 | 1.0 | 6.0 | 0.00 | 0.08 | 0.01 | 61 | 1019.0 |
| 20260906133503 | 63 | 311 | 1.0 | 8.0 | 0.00 | 0.08 | 0.01 | 61 | 1019.0 |
| 20260906133003 | 63 | 305 | 1.0 | 7.0 | 0.00 | 0.08 | 0.01 | 62 | 1019.0 |
| 20260906132503 | 64 | 284 | 1.0 | 7.0 | 0.00 | 0.08 | 0.01 | 62 | 1019.0 |
| 20260906132003 | 65 | 285 | 1.0 | 6.0 | 0.00 | 0.08 | 0.01 | 62 | 1018.8 |
| 20260906131503 | 66 | 293 | 1.0 | 9.0 | 0.00 | 0.08 | 0.01 | 62 | 1018.8 |
| 20260906131002 | 65 | 307 | 1.0 | 9.0 | 0.00 | 0.08 | 0.01 | 63 | 1018.8 |
| 20260906130502 | 66 | 313 | 1.0 | 6.0 | 0.00 | 0.08 | 0.01 | 62 | 1018.7 |
| 20260906130003 | 66 | 222 | 0.0 | 2.0 | 0.00 | 0.08 | 0.01 | 62 | 1018.7 |
| 20260906125524 | 65 | 244 | 0.0 | 2.0 | 0.00 | 0.08 | 0.01 | 62 | 1018.6 |
| 20260906125023 | 64 | 304 | 1.0 | 5.0 | 0.00 | 0.08 | 0.01 | 62 | 1018.6 |
| 20260906124524 | 64 | 303 | 1.0 | 5.0 | 0.00 | 0.08 | 0.01 | 62 | 1018.7 |
| 20260906124003 | 64 | 290 | 1.0 | 5.0 | 0.00 | 0.08 | 0.01 | 63 | 1018.7 |
| 20260906123503 | 65 | 291 | 1.0 | 4.0 | 0.00 | 0.08 | 0.01 | 63 | 1018.7 |
| 20260906123003 | 65 | 294 | 1.0 | 7.0 | 0.00 | 0.08 | 0.01 | 63 | 1018.6 |
| 20260906122503 | 66 | 285 | 1.0 | 7.0 | 0.00 | 0.08 | 0.01 | 63 | 1018.6 |
| 20260906122024 | 66 | 271 | 1.0 | 6.0 | 0.00 | 0.08 | 0.01 | 62 | 1018.6 |
| 20260906121503 | 67 | 294 | 1.0 | 5.0 | 0.00 | 0.08 | 0.01 | 62 | 1018.5 |
| 20260906121003 | 67 | 297 | 1.0 | 4.0 | 0.00 | 0.08 | 0.01 | 62 | 1018.5 |
| 20260906120524 | 67 | 297 | 1.0 | 4.0 | 0.00 | 0.08 | 0.01 | 62 | 1018.5 |
| 20260906120003 | 67 | 309 | 1.0 | 7.0 | 0.00 | 0.08 | 0.01 | 63 | 1018.4 |
| 20260906115503 | 67 | 314 | 1.0 | 7.0 | 0.00 | 0.08 | 0.01 | 62 | 1018.5 |
| 20260906115003 | 67 | 313 | 1.0 | 5.0 | 0.00 | 0.08 | 0.01 | 61 | 1018.4 |
| 20260906114503 | 68 | 312 | 1.0 | 3.0 | 0.00 | 0.08 | 0.01 | 62 | 1018.4 |
| 20260906114003 | 68 | 316 | 1.0 | 6.0 | 0.00 | 0.08 | 0.01 | 62 | 1018.4 |
| 20260906113503 | 67 | 309 | 1.0 | 6.0 | 0.00 | 0.08 | 0.01 | 63 | 1018.3 |
| 20260906113003 | 67 | 299 | 1.0 | 4.0 | 0.00 | 0.08 | 0.01 | 62 | 1018.2 |
| 20260906112503 | 68 | 286 | 0.0 | 4.0 | 0.00 | 0.08 | 0.01 | 62 | 1018.2 |
| 20260906112003 | 68 | 297 | 1.0 | 6.0 | 0.00 | 0.08 | 0.01 | 62 | 1018.0 |
| 20260906111503 | 67 | 298 | 1.0 | 6.0 | 0.00 | 0.08 | 0.01 | 61 | 1017.9 |
| 20260906111024 | 68 | 271 | 1.0 | 5.0 | 0.00 | 0.08 | 0.01 | 62 | 1017.9 |
| 20260906110502 | 68 | 276 | 0.0 | 5.0 | 0.00 | 0.08 | 0.01 | 62 | 1018.0 |
| 20260906110003 | 68 | 340 | 0.0 | 5.0 | 0.00 | 0.08 | 0.01 | 62 | 1017.7 |
| 20260906105503 | 67 | 317 | 0.0 | 5.0 | 0.00 | 0.08 | 0.01 | 61 | 1017.7 |
| 20260906105003 | 67 | 297 | 0.0 | 5.0 | 0.00 | 0.08 | 0.01 | 62 | 1017.6 |
| 20260906104503 | 67 | 296 | 1.0 | 5.0 | 0.00 | 0.08 | 0.01 | 62 | 1017.6 |
| 20260906104003 | 67 | 297 | 1.0 | 5.0 | 0.00 | 0.08 | 0.01 | 62 | 1017.4 |
| 20260906103503 | 67 | 285 | 0.0 | 3.0 | 0.00 | 0.08 | 0.01 | 62 | 1017.4 |
| 20260906103024 | 67 | 305 | 1.0 | 6.0 | 0.00 | 0.08 | 0.01 | 62 | 1017.4 |
| 20260906102503 | 67 | 306 | 1.0 | 6.0 | 0.00 | 0.08 | 0.01 | 62 | 1017.3 |
| 20260906102024 | 67 | 308 | 1.0 | 6.0 | 0.00 | 0.08 | 0.01 | 62 | 1017.3 |
| 20260906101503 | 68 | 315 | 0.0 | 3.0 | 0.00 | 0.08 | 0.01 | 62 | 1017.2 |
| 20260906101003 | 67 | 335 | 0.0 | 3.0 | 0.00 | 0.08 | 0.01 | 62 | 1017.1 |
| 20260906100503 | 67 | 320 | 0.0 | 4.0 | 0.00 | 0.08 | 0.01 | 61 | 1017.2 |
| 20260906100003 | 66 | 314 | 1.0 | 4.0 | 0.00 | 0.08 | 0.01 | 61 | 1017.1 |
| 20260906095524 | 66 | 317 | 1.0 | 4.0 | 0.00 | 0.08 | 0.01 | 62 | 1017.1 |
| 20260906095003 | 66 | 315 | 0.0 | 4.0 | 0.00 | 0.08 | 0.01 | 62 | 1017.0 |
| 20260906094503 | 67 | 281 | 0.0 | 3.0 | 0.00 | 0.08 | 0.01 | 61 | 1017.1 |
| 20260906094024 | 67 | 306 | 0.0 | 3.0 | 0.00 | 0.08 | 0.01 | 61 | 1017.0 |
| 20260906093503 | 66 | 317 | 0.0 | 3.0 | 0.00 | 0.08 | 0.01 | 60 | 1016.9 |
| 20260906093003 | 66 | 316 | 0.0 | 5.0 | 0.00 | 0.08 | 0.01 | 60 | 1016.8 |
| 20260906092503 | 66 | 322 | 1.0 | 5.0 | 0.00 | 0.08 | 0.01 | 59 | 1016.8 |
| 20260906092003 | 66 | 324 | 0.0 | 5.0 | 0.00 | 0.08 | 0.01 | 59 | 1016.7 |
| 20260906091503 | 66 | 178 | 0.0 | 5.0 | 0.00 | 0.08 | 0.01 | 57 | 1016.7 |
| 20260906091024 | 66 | 276 | 0.0 | 4.0 | 0.00 | 0.08 | 0.01 | 58 | 1016.7 |
| 20260906090503 | 65 | 293 | 0.0 | 4.0 | 0.00 | 0.08 | 0.01 | 60 | 1016.6 |
| 20260906090003 | 65 | 290 | 0.0 | 3.0 | 0.00 | 0.08 | 0.01 | 55 | 1016.7 |
| 20260906085503 | 65 | 292 | 0.0 | 3.0 | 0.00 | 0.08 | 0.01 | 54 | 1016.6 |
| 20260906085003 | 64 | 313 | 1.0 | 5.0 | 0.00 | 0.08 | 0.01 | 54 | 1016.5 |
| 20260906084503 | 64 | 314 | 1.0 | 5.0 | 0.00 | 0.08 | 0.01 | 56 | 1016.5 |
| 20260906084003 | 64 | 316 | 0.0 | 4.0 | 0.00 | 0.08 | 0.01 | 53 | 1016.4 |
| 20260906083503 | 65 | 327 | 0.0 | 4.0 | 0.00 | 0.08 | 0.01 | 50 | 1016.5 |
| 20260906083003 | 64 | 304 | 0.0 | 7.0 | 0.00 | 0.08 | 0.01 | 47 | 1016.3 |
| 20260906082503 | 64 | 311 | 0.0 | 7.0 | 0.00 | 0.08 | 0.01 | 52 | 1016.2 |
| 20260906082024 | 64 | 329 | 0.0 | 4.0 | 0.00 | 0.08 | 0.01 | 52 | 1016.2 |
| 20260906081503 | 64 | 184 | 0.0 | 1.0 | 0.00 | 0.09 | 0.01 | 44 | 1016.1 |
| 20260906081003 | 64 | 289 | 0.0 | 3.0 | 0.00 | 0.09 | 0.01 | 39 | 1016.1 |
| 20260906080502 | 63 | 296 | 0.0 | 3.0 | 0.00 | 0.09 | 0.01 | 38 | 1016.1 |
| 20260906080003 | 63 | 311 | 0.0 | 6.0 | 0.00 | 0.09 | 0.01 | 37 | 1016.1 |
| 20260906075503 | 63 | 310 | 0.0 | 6.0 | 0.00 | 0.09 | 0.01 | 42 | 1016.0 |
| 20260906075003 | 62 | 285 | 0.0 | 2.0 | 0.00 | 0.09 | 0.01 | 21 | 1015.9 |
| 20260906074503 | 61 | 311 | 0.0 | 2.0 | 0.00 | 0.09 | 0.01 | 16 | 1015.8 |
| 20260906074003 | 60 | 314 | 0.0 | 3.0 | 0.00 | 0.09 | 0.01 | 5 | 1015.7 |
| 20260906073503 | 60 | 310 | 1.0 | 5.0 | 0.00 | 0.09 | 0.01 | 2 | 1015.7 |
| 20260906073003 | 59 | 307 | 0.0 | 5.0 | 0.00 | 0.09 | 0.01 | 1 | 1015.5 |
| 20260906072524 | 60 | 308 | 0.0 | 1.0 | 0.00 | 0.09 | 0.01 | 1 | 1015.5 |
| 20260906072003 | 59 | 331 | 0.0 | 3.0 | 0.00 | 0.09 | 0.01 | 1 | 1015.4 |
| 20260906071503 | 59 | 338 | 0.0 | 3.0 | 0.00 | 0.09 | 0.01 | 1 | 1015.4 |
| 20260906071003 | 58 | 323 | 0.0 | 1.0 | 0.00 | 0.09 | 0.01 | 1 | 1015.3 |
| 20260906070502 | 58 | 115 | 0.0 | 1.0 | 0.00 | 0.09 | 0.01 | 1 | 1015.4 |
| 20260906070003 | 57 | 343 | 0.0 | 2.0 | 0.00 | 0.09 | 0.01 | 1 | 1015.3 |
| 20260906065502 | 56 | 312 | 0.0 | 3.0 | 0.00 | 0.09 | 0.01 | 1 | 1015.3 |
| 20260906065023 | 56 | 314 | 0.0 | 3.0 | 0.00 | 0.09 | 0.01 | 1 | 1015.3 |
| 20260906064502 | 56 | 313 | 0.0 | 1.0 | 0.00 | 0.09 | 0.01 | 1 | 1015.2 |
| 20260906064003 | 55 | 313 | 0.0 | 1.0 | 0.00 | 0.09 | 0.01 | 1 | 1015.2 |
| 20260906063503 | 54 | 319 | 0.0 | 1.0 | 0.00 | 0.09 | 0.01 | 1 | 1015.1 |
| 20260906063024 | 54 | 69 | 0.0 | 1.0 | 0.00 | 0.09 | 0.01 | 1 | 1015.1 |
| 20260906062503 | 53 | 19 | 0.0 | 1.0 | 0.00 | 0.09 | 0.01 | 1 | 1015.1 |
| 20260906062003 | 53 | 0 | 0.0 | 0.0 | 0.00 | 0.09 | 0.01 | 1 | 1015.1 |
| 20260906061503 | 52 | 0 | 0.0 | 1.0 | 0.00 | 0.09 | 0.01 | 1 | 1015.0 |
| 20260906061024 | 52 | 0 | 0.0 | 1.0 | 0.00 | 0.09 | 0.01 | 1 | 1014.9 |
| 20260906060523 | 46 | 0 | 0.0 | 0.0 | 0.00 | 0.09 | 0.01 | 1 | 1014.9 |
| 20260906060002 | 46 | 0 | 0.0 | 0.0 | 0.00 | 0.09 | 0.01 | 1 | 1014.8 |
| 20260906055503 | 46 | 0 | 0.0 | 0.0 | 0.00 | 0.09 | 0.01 | 1 | 1014.7 |
| 20260906055003 | 46 | 0 | 0.0 | 0.0 | 0.00 | 0.09 | 0.01 | 1 | 1014.6 |
| 20260906054503 | 46 | 0 | 0.0 | 0.0 | 0.00 | 0.09 | 0.01 | 1 | 1014.7 |
| 20260906054003 | 46 | 0 | 0.0 | 0.0 | 0.00 | 0.09 | 0.01 | 1 | 1014.6 |
| 20260906053503 | 46 | 0 | 0.0 | 0.0 | 0.00 | 0.09 | 0.01 | 1 | 1014.6 |
| 20260906053003 | 46 | 0 | 0.0 | 0.0 | 0.00 | 0.09 | 0.01 | 1 | 1014.4 |
| 20260906052503 | 46 | 0 | 0.0 | 0.0 | 0.00 | 0.09 | 0.01 | 1 | 1014.4 |
| 20260906052024 | 46 | 0 | 0.0 | 0.0 | 0.00 | 0.09 | 0.01 | 1 | 1014.4 |
| 20260906051503 | 46 | 0 | 0.0 | 0.0 | 0.00 | 0.09 | 0.01 | 1 | 1014.3 |
| 20260906051003 | 46 | 0 | 0.0 | 0.0 | 0.00 | 0.09 | 0.01 | 1 | 1014.2 |
| 20260906050503 | 46 | 0 | 0.0 | 0.0 | 0.00 | 0.09 | 0.01 | 1 | 1014.2 |
| 20260906050002 | 46 | 0 | 0.0 | 0.0 | 0.01 | 0.09 | 0.01 | 1 | 1014.0 |
| 20260906045503 | 46 | 0 | 0.0 | 0.0 | 0.01 | 0.09 | 0.01 | 1 | 1013.9 |
| 20260906045003 | 46 | 0 | 0.0 | 0.0 | 0.01 | 0.09 | 0.01 | 1 | 1013.9 |
| 20260906044503 | 46 | 0 | 0.0 | 0.0 | 0.01 | 0.09 | 0.01 | 1 | 1013.9 |
| 20260906044024 | 46 | 0 | 0.0 | 0.0 | 0.01 | 0.09 | 0.01 | 1 | 1013.9 |
| 20260906043503 | 46 | 0 | 0.0 | 0.0 | 0.01 | 0.09 | 0.01 | 1 | 1013.8 |
| 20260906043003 | 46 | 0 | 0.0 | 0.0 | 0.01 | 0.09 | 0.01 | 1 | 1013.6 |
| 20260906042503 | 46 | 0 | 0.0 | 0.0 | 0.01 | 0.09 | 0.01 | 1 | 1013.7 |
| 20260906042003 | 46 | 0 | 0.0 | 0.0 | 0.01 | 0.09 | 0.01 | 1 | 1013.6 |
| 20260906041524 | 46 | 0 | 0.0 | 0.0 | 0.01 | 0.09 | 0.01 | 1 | 1013.4 |
| 20260906041003 | 46 | 0 | 0.0 | 0.0 | 0.01 | 0.09 | 0.01 | 1 | 1013.4 |
| 20260906040524 | 46 | 0 | 0.0 | 0.0 | 0.01 | 0.09 | 0.01 | 1 | 1013.3 |
| 20260906040003 | 46 | 0 | 0.0 | 0.0 | 0.00 | 0.08 | 0.00 | 1 | 1013.2 |
| 20260906035503 | 46 | 0 | 0.0 | 0.0 | 0.00 | 0.08 | 0.00 | 1 | 1013.2 |
| 20260906035003 | 46 | 0 | 0.0 | 0.0 | 0.00 | 0.08 | 0.00 | 1 | 1013.1 |
| 20260906034503 | 46 | 0 | 0.0 | 0.0 | 0.00 | 0.08 | 0.00 | 1 | 1013.1 |
| 20260906034024 | 46 | 0 | 0.0 | 0.0 | 0.00 | 0.08 | 0.00 | 1 | 1013.1 |
| 20260906033503 | 46 | 0 | 0.0 | 0.0 | 0.00 | 0.08 | 0.00 | 1 | 1013.0 |
| 20260906033003 | 46 | 0 | 0.0 | 0.0 | 0.00 | 0.08 | 0.00 | 1 | 1012.9 |
| 20260906032524 | 46 | 0 | 0.0 | 0.0 | 0.00 | 0.08 | 0.00 | 1 | 1012.9 |
| 20260906032003 | 46 | 0 | 0.0 | 0.0 | 0.00 | 0.08 | 0.00 | 1 | 1012.9 |
| 20260906031503 | 46 | 0 | 0.0 | 0.0 | 0.00 | 0.08 | 0.00 | 1 | 1012.8 |
| 20260906031003 | 46 | 0 | 0.0 | 0.0 | 0.00 | 0.08 | 0.00 | 1 | 1012.7 |
| 20260906030503 | 46 | 0 | 0.0 | 0.0 | 0.00 | 0.08 | 0.00 | 1 | 1012.7 |
| 20260906030003 | 46 | 0 | 0.0 | 0.0 | 0.00 | 0.08 | 0.00 | 1 | 1012.7 |
| 20260906025502 | 46 | 0 | 0.0 | 0.0 | 0.00 | 0.08 | 0.00 | 1 | 1012.5 |
| 20260906025023 | 46 | 0 | 0.0 | 0.0 | 0.00 | 0.08 | 0.00 | 1 | 1012.5 |
| 20260906024503 | 46 | 0 | 0.0 | 0.0 | 0.00 | 0.08 | 0.00 | 1 | 1012.5 |
| 20260906024003 | 46 | 0 | 0.0 | 0.0 | 0.00 | 0.08 | 0.00 | 1 | 1012.3 |
| 20260906023503 | 47 | 0 | 0.0 | 0.0 | 0.00 | 0.08 | 0.00 | 1 | 1012.3 |
| 20260906023003 | 46 | 0 | 0.0 | 0.0 | 0.00 | 0.08 | 0.00 | 1 | 1012.3 |
| 20260906022502 | 46 | 0 | 0.0 | 0.0 | 0.00 | 0.08 | 0.00 | 1 | 1012.3 |
| 20260906022003 | 46 | 0 | 0.0 | 0.0 | 0.00 | 0.08 | 0.00 | 1 | 1012.2 |
| 20260906021503 | 47 | 0 | 0.0 | 0.0 | 0.00 | 0.08 | 0.00 | 1 | 1012.2 |
| 20260906021003 | 47 | 0 | 0.0 | 0.0 | 0.00 | 0.08 | 0.00 | 1 | 1012.1 |
| 20260906020503 | 47 | 0 | 0.0 | 0.0 | 0.00 | 0.08 | 0.00 | 1 | 1012.1 |
| 20260906020003 | 47 | 0 | 0.0 | 0.0 | 0.00 | 0.08 | 0.00 | 1 | 1012.1 |
| 20260906015503 | 47 | 0 | 0.0 | 0.0 | 0.00 | 0.08 | 0.00 | 1 | 1012.0 |
| 20260906015002 | 47 | 0 | 0.0 | 0.0 | 0.00 | 0.08 | 0.00 | 1 | 1012.0 |
| 20260906014503 | 47 | 0 | 0.0 | 0.0 | 0.00 | 0.08 | 0.00 | 1 | 1012.1 |
| 20260906014002 | 47 | 0 | 0.0 | 0.0 | 0.00 | 0.08 | 0.00 | 1 | 1012.0 |
| 20260906013503 | 47 | 0 | 0.0 | 0.0 | 0.00 | 0.08 | 0.00 | 1 | 1011.9 |
| 20260906013024 | 47 | 0 | 0.0 | 0.0 | 0.00 | 0.09 | 0.00 | 1 | 1011.7 |
| 20260906012503 | 47 | 0 | 0.0 | 0.0 | 0.00 | 0.09 | 0.00 | 1 | 1011.8 |
| 20260906012003 | 47 | 0 | 0.0 | 0.0 | 0.00 | 0.09 | 0.00 | 1 | 1011.7 |
| 20260906011503 | 47 | 0 | 0.0 | 0.0 | 0.00 | 0.09 | 0.00 | 1 | 1011.7 |
| 20260906011003 | 47 | 0 | 0.0 | 0.0 | 0.00 | 0.09 | 0.00 | 1 | 1011.6 |
| 20260906010503 | 47 | 0 | 0.0 | 0.0 | 0.00 | 0.10 | 0.00 | 1 | 1011.5 |
| 20260906010024 | 47 | 0 | 0.0 | 0.0 | 0.00 | 0.11 | 0.00 | 1 | 1011.3 |
| 20260906005503 | 47 | 0 | 0.0 | 0.0 | 0.00 | 0.11 | 0.00 | 1 | 1011.3 |
| 20260906005002 | 47 | 0 | 0.0 | 0.0 | 0.00 | 0.11 | 0.00 | 1 | 1011.3 |
| 20260906004503 | 47 | 0 | 0.0 | 0.0 | 0.00 | 0.11 | 0.00 | 1 | 1011.2 |
| 20260906004003 | 47 | 0 | 0.0 | 0.0 | 0.00 | 0.11 | 0.00 | 1 | 1011.2 |
| 20260906003503 | 47 | 0 | 0.0 | 0.0 | 0.00 | 0.11 | 0.00 | 1 | 1011.1 |
| 20260906003003 | 47 | 0 | 0.0 | 0.0 | 0.00 | 0.12 | 0.00 | 1 | 1011.1 |
| 20260906002503 | 47 | 0 | 0.0 | 0.0 | 0.00 | 0.12 | 0.00 | 1 | 1011.1 |
| 20260906002003 | 47 | 0 | 0.0 | 0.0 | 0.00 | 0.12 | 0.00 | 1 | 1011.0 |
| 20260906001503 | 47 | 0 | 0.0 | 0.0 | 0.00 | 0.12 | 0.00 | 1 | 1011.0 |
| 20260906001003 | 47 | 0 | 0.0 | 0.0 | 0.00 | 0.12 | 0.00 | 1 | 1011.0 |
| 20260906000503 | 47 | 0 | 0.0 | 0.0 | 0.00 | 0.12 | 0.00 | 1 | 1011.0 |
| 20260906000003 | 47 | 0 | 0.0 | 0.0 | 0.00 | 0.12 | 0.00 | 1 | 1010.9 |
| 20260905235502 | 47 | 0 | 0.0 | 0.0 | 0.00 | 0.12 | 0.00 | 1 | 1010.9 |
| 20260905235003 | 47 | 0 | 0.0 | 0.0 | 0.00 | 0.12 | 0.00 | 1 | 1010.8 |
| 20260905234503 | 47 | 0 | 0.0 | 0.0 | 0.00 | 0.12 | 0.00 | 1 | 1010.7 |
| 20260905234003 | 48 | 0 | 0.0 | 0.0 | 0.00 | 0.12 | 0.00 | 1 | 1010.7 |
| 20260905233524 | 48 | 0 | 0.0 | 0.0 | 0.00 | 0.13 | 0.00 | 1 | 1010.6 |
| 20260905233003 | 48 | 0 | 0.0 | 0.0 | 0.00 | 0.13 | 0.00 | 1 | 1010.5 |
| 20260905232503 | 48 | 0 | 0.0 | 0.0 | 0.00 | 0.13 | 0.00 | 1 | 1010.5 |
| 20260905232003 | 48 | 0 | 0.0 | 0.0 | 0.00 | 0.13 | 0.00 | 1 | 1010.4 |
| 20260905231503 | 48 | 0 | 0.0 | 0.0 | 0.00 | 0.13 | 0.00 | 1 | 1010.4 |
| 20260905231003 | 48 | 0 | 0.0 | 0.0 | 0.00 | 0.13 | 0.00 | 1 | 1010.3 |
| 20260905230503 | 48 | 0 | 0.0 | 0.0 | 0.00 | 0.13 | 0.00 | 1 | 1010.3 |
| 20260905230003 | 48 | 0 | 0.0 | 0.0 | 0.00 | 0.13 | 0.00 | 1 | 1010.2 |
| 20260905225503 | 48 | 0 | 0.0 | 0.0 | 0.00 | 0.13 | 0.00 | 1 | 1010.1 |
| 20260905225002 | 48 | 0 | 0.0 | 0.0 | 0.00 | 0.13 | 0.00 | 1 | 1010.0 |
| 20260905224503 | 48 | 0 | 0.0 | 0.0 | 0.00 | 0.13 | 0.00 | 1 | 1010.0 |
| 20260905224003 | 48 | 0 | 0.0 | 0.0 | 0.00 | 0.13 | 0.00 | 1 | 1009.9 |
| 20260905223503 | 48 | 0 | 0.0 | 0.0 | 0.00 | 0.13 | 0.00 | 1 | 1009.8 |
| 20260905223003 | 48 | 0 | 0.0 | 0.0 | 0.00 | 0.13 | 0.00 | 1 | 1009.9 |
| 20260905222503 | 49 | 0 | 0.0 | 0.0 | 0.00 | 0.13 | 0.00 | 1 | 1009.8 |
| 20260905222024 | 49 | 0 | 0.0 | 0.0 | 0.00 | 0.13 | 0.00 | 1 | 1009.7 |
| 20260905221503 | 49 | 0 | 0.0 | 0.0 | 0.00 | 0.13 | 0.00 | 1 | 1009.7 |
| 20260905221003 | 49 | 0 | 0.0 | 0.0 | 0.00 | 0.13 | 0.00 | 1 | 1009.7 |
| 20260905220503 | 49 | 0 | 0.0 | 0.0 | 0.00 | 0.13 | 0.00 | 1 | 1009.6 |
| 20260905220026 | 49 | 0 | 0.0 | 0.0 | 0.00 | 0.13 | 0.00 | 1 | 1009.6 |
| 20260905215503 | 49 | 0 | 0.0 | 0.0 | 0.00 | 0.13 | 0.13 | 1 | 1009.4 |
| 20260905215003 | 49 | 0 | 0.0 | 0.0 | 0.00 | 0.13 | 0.13 | 1 | 1009.4 |
| 20260905214524 | 50 | 0 | 0.0 | 0.0 | 0.00 | 0.13 | 0.13 | 1 | 1009.2 |
| 20260905214003 | 50 | 0 | 0.0 | 0.0 | 0.00 | 0.13 | 0.13 | 1 | 1009.2 |
| 20260905213503 | 50 | 0 | 0.0 | 0.0 | 0.00 | 0.13 | 0.13 | 1 | 1009.1 |
| 20260905213024 | 50 | 0 | 0.0 | 0.0 | 0.00 | 0.13 | 0.13 | 1 | 1009.0 |
| 20260905212503 | 50 | 0 | 0.0 | 0.0 | 0.00 | 0.13 | 0.13 | 1 | 1008.9 |
| 20260905212003 | 50 | 0 | 0.0 | 0.0 | 0.00 | 0.13 | 0.13 | 1 | 1008.8 |
| 20260905211503 | 51 | 0 | 0.0 | 0.0 | 0.00 | 0.13 | 0.13 | 1 | 1008.7 |
| 20260905211003 | 51 | 0 | 0.0 | 0.0 | 0.00 | 0.13 | 0.13 | 1 | 1008.8 |
| 20260905210524 | 51 | 0 | 0.0 | 0.0 | 0.00 | 0.14 | 0.13 | 1 | 1008.6 |
| 20260905210003 | 51 | 0 | 0.0 | 0.0 | 0.00 | 0.14 | 0.13 | 1 | 1008.5 |
| 20260905205524 | 51 | 0 | 0.0 | 0.0 | 0.00 | 0.14 | 0.13 | 1 | 1008.4 |
| 20260905205003 | 52 | 0 | 0.0 | 0.0 | 0.00 | 0.14 | 0.13 | 1 | 1008.3 |
| 20260905204503 | 52 | 0 | 0.0 | 0.0 | 0.00 | 0.14 | 0.13 | 1 | 1008.3 |
| 20260905204024 | 52 | 0 | 0.0 | 0.0 | 0.00 | 0.14 | 0.13 | 1 | 1008.1 |
| 20260905203503 | 52 | 0 | 0.0 | 0.0 | 0.00 | 0.14 | 0.13 | 1 | 1008.1 |
| 20260905203003 | 52 | 0 | 0.0 | 0.0 | 0.00 | 0.15 | 0.13 | 1 | 1007.9 |
| 20260905202503 | 53 | 0 | 0.0 | 0.0 | 0.00 | 0.15 | 0.13 | 1 | 1007.9 |
| 20260905202003 | 53 | 0 | 0.0 | 0.0 | 0.00 | 0.15 | 0.13 | 1 | 1007.8 |
| 20260905201503 | 53 | 0 | 0.0 | 0.0 | 0.00 | 0.16 | 0.13 | 1 | 1007.7 |
| 20260905201003 | 53 | 352 | 0.0 | 1.0 | 0.00 | 0.16 | 0.13 | 1 | 1007.6 |
| 20260905200524 | 53 | 352 | 0.0 | 1.0 | 0.00 | 0.16 | 0.13 | 1 | 1007.5 |
| 20260905200004 | 53 | 0 | 0.0 | 0.0 | 0.00 | 0.17 | 0.13 | 1 | 1007.5 |
| 20260905195503 | 53 | 0 | 0.0 | 0.0 | 0.00 | 0.17 | 0.13 | 1 | 1007.4 |
| 20260905195024 | 53 | 0 | 0.0 | 0.0 | 0.00 | 0.17 | 0.13 | 1 | 1007.2 |
| 20260905194503 | 54 | 0 | 0.0 | 0.0 | 0.00 | 0.17 | 0.13 | 1 | 1007.1 |
| 20260905194024 | 54 | 0 | 0.0 | 0.0 | 0.00 | 0.17 | 0.13 | 1 | 1007.1 |
| 20260905193503 | 54 | 0 | 0.0 | 0.0 | 0.00 | 0.17 | 0.13 | 1 | 1007.0 |
| 20260905193002 | 54 | 0 | 0.0 | 0.0 | 0.00 | 0.17 | 0.13 | 1 | 1007.0 |
| 20260905192503 | 54 | 347 | 0.0 | 1.0 | 0.00 | 0.17 | 0.13 | 1 | 1006.8 |
| 20260905192024 | 55 | 348 | 0.0 | 1.0 | 0.00 | 0.17 | 0.13 | 1 | 1006.7 |
| 20260905191503 | 55 | 349 | 0.0 | 1.0 | 0.00 | 0.17 | 0.13 | 1 | 1006.6 |
| 20260905191003 | 55 | 0 | 0.0 | 1.0 | 0.00 | 0.17 | 0.13 | 1 | 1006.5 |
| 20260905190524 | 55 | 281 | 0.0 | 1.0 | 0.00 | 0.17 | 0.13 | 1 | 1006.4 |